AL YAH 3

Last updated on Thu Aug 13 2026 00:03:01 GMT+0000 (Coordinated Universal Time)

1 43174U 18012A 26224.42549507 -.00000174 00000+0 00000+0 0 9994 2 43174 1.6922 82.3854 0003401 59.9987 311.5565 1.00270852 31416
UTC large
Height (km)
Speed (km/s)
/
Latitude / Longitude
Inclination (degrees)
Orbital Period (minutes)
Azimuth
Elevation
Range (km)
Doppler Factor

Next 0 passes for location: London (51.5072 / 0.1276)

No passes found over London.
AL YAH 3